Location: Casco Volunteer Fire Department
(44.5576°N, 87.6146°W)
Time: 04:47:25
(UTC+00:00)

Cosmos 1933 Rocket - Pass Details

Date: 22 January 2026
Orbit: 600 x 623 km, 82.5° (Epoch: 7 February)

Event Time Altitude Azimuth Distance (km) Brightness Sun altitude
Rises 23:30:44 0° 348° (NNW) 2,888 6.9 -8.2°
Reaches altitude 10° 23:32:59 10° 345° (NNW) 1,975 6.1 -8.6°
Maximum altitude 23:37:17 61° 265° (W) 693 4.2 -9.3°
Drops below altitude 10° 23:41:32 10° 185° (S) 1,945 6.4 -10.0°
Sets 23:43:44 0° 182° (S) 2,841 7.2 -10.4°
